Location: Baggettsville
(36.4767°N, 86.7303°W)
Time: 08:48:41
(UTC+00:00)

Cosmos 2219 - Pass Details

Date: 29 October 2020
Orbit: 832 x 862 km, 71.1° (Epoch: 04 December)

Event Time Altitude Azimuth Distance (km) Brightness Sun altitude
Rises 23:10:54 0° 345° (NNW) 3,443 6.4 -4.3°
Reaches altitude 10° 23:13:31 10° 353° (N) 2,504 5.6 -4.8°
Maximum altitude 23:18:56 41° 63° (ENE) 1,234 3.7 -5.9°
Drops below altitude 10° 23:24:19 10° 132° (SE) 2,489 5.3 -6.9°
Sets 23:26:54 0° 140° (SE) 3,419 6.1 -7.5°
